Regional Weather Roundup
Issued by NWS Bismarck, ND

Home | Current Version | Previous Version | Text Only | Print | Product List | Glossary On
Versions: 1 2 3 4 5 6 7 8 9 10 11 12 13 14 15 16 17 18 19 20 21 22 23 24 25 26 27 28 29 30 31 32 33 34 35 36 37 38 39 40 41 42 43 44 45 46 47 48 49 50
000
ASUS43 KBIS 250702
RWRBIS

NWR BROADCAST TEXT
NATIONAL WEATHER SERVICE BISMARCK ND
200 AM CDT TUE JUL 25 2017

NOTE: "FAIR" INDICATES FEW OR NO CLOUDS BELOW 12,000 FEET WITH NO
SIGNIFICANT WEATHER AND/OR OBSTRUCTIONS TO VISIBILITY.


CITY           SKY/WX    TMP DP  RH WIND       PRES   REMARKS
WILLISTON      FAIR      69  48  47 N9        29.90R
MINOT          FAIR      69  55  60 NW3       29.83S
MINOT AFB      FAIR      66  55  69 CALM      29.82F
BISMARCK       FAIR      68  66  93 SE5       29.84R
DICKINSON      FAIR      67  57  70 N8        29.88R
GARRISON         N/A     71  56  58 NE7       29.84S
HETTINGER ARPT FAIR      69  64  84 NE3       29.90S
JAMESTOWN      FAIR      68  64  87 SE12      29.85F
HAZEN          FAIR      68  63  83 W3        29.84F
LINTON         FAIR     N/A N/A N/A SE12G18   29.85R
MANDAN         FAIR      68  68 100 CALM      29.86S
STANLEY        FAIR      61  54  77 N7        29.91R
TIOGA          FAIR      59  50  72 CALM      29.92R
WATFORD CITY   FAIR      63  50  63 N5        29.88R
$$

CITY           SKY/WX    TMP DP  RH WIND       PRES   REMARKS
GRAND FORKS    FAIR      68  65  90 S12       29.85R
GRAND FORKS AF FAIR      68  64  86 S15       29.85S
DEVILS LAKE    FAIR      70  65  84 S13       29.85R
FARGO          FAIR      70  64  81 S17       29.88S
CAVALIER       FAIR      68  64  88 S10       29.82S
GRAFTON        FAIR      68  64  88 S14       29.85S
GWINNER        SUNNY     66  66 100 SE5       29.87F
LANGDON        FAIR      68  68 100 SW7G14    29.86R
ROLLA            N/A     68  68 100 NW3       29.84R
$$

CITY           SKY/WX    TMP DP  RH WIND       PRES   REMARKS
ABERDEEN       FAIR      72  66  81 SE15G21   29.85F
MOBRIDGE       FAIR      71  65  81 E14       29.79F
BUFFALO          N/A     73  60  63 NE10      29.83S
RAPID CITY     FAIR      67  54  63 CALM      29.88F
GLASGOW        FAIR      68  35  29 N13       29.93R
SIDNEY         FAIR      71  46  40 N14       29.89R
WOLF POINT     FAIR      71  42  35 N5        29.92R
GLENDIVE       FAIR      70  47  43 NE7       29.90R
MILES CITY     FAIR      76  46  34 NE10      29.87R
BAKER          FAIR      74  50  42 E5        29.91S
$$

CITY           SKY/WX    TMP DP  RH WIND       PRES   REMARKS
GREAT FALLS    FAIR      63  34  33 NE15      30.04R
$$




USA.gov is the U.S. government's official web portal to all federal, state and local government web resources and services.